Sanford, ME

8:39 AM EDT on August 17, 2017 (GMT -0400)
Sanford Regional

Weather History for KSFM - January, 2013

Change the Weather History Date:

Thursday, January 10, 2013

  Actual Average Record
Temperature  
Mean Temperature 30 °F -  
Max Temperature 42 °F 28 °F 51 °F (2016)
Min Temperature 19 °F 11 °F -14 °F (2004)
Degree Days  
Heating Degree Days 34    
Moisture  
Dew Point 23 °F    
Average Humidity 60    
Maximum Humidity 93    
Minimum Humidity 42    
Precipitation  
Precipitation 0.00 in - - ()
Sea Level Pressure  
Sea Level Pressure 30.26 in    
Wind  
Wind Speed 14 mph (WNW)    
Max Wind Speed 24 mph    
Max Gust Speed 37 mph    
Visibility 10 miles    
Events      
Averages and records for this station are not official NWS values.
T = Trace of Precipitation, MM = Missing Value Source: NWS Daily Summary

Daily Weather History Graph

Daily Weather History Graph

Search for Another Location

Airport or City:

Trip Planner

Search our weather history database for the weather conditions in past years. The results will help you decide how hot, cold, wet, or windy it might be!

Date:

Astronomy

Jan. 10, 2013 Rise Set
Actual Time 7:14 AM EST 4:26 PM EST
Civil Twilight 6:42 AM EST 4:58 PM EST
Nautical Twilight 6:06 AM EST 5:34 PM EST
Astronomical Twilight 5:32 AM EST 6:08 PM EST
Moon 5:51 AM EST (1/10) 3:31 PM EST (1/10)
Length of Visible Light 10h 16m
Length of Day
9h 12m
Waning Crescent, 2% of the Moon is Illuminated
Jan 10
Waning Crescent
Jan 11
New
Jan 18
First Quarter
Jan 26
Full
Feb 3
Last Quarter

Hourly Weather History & Observations

Time (EST) Temp. Windchill Dew Point Humidity Pressure Visibility Wind Dir Wind Speed Gust Speed Precip Events Conditions
12:35 AM 39.2 °F 30.8 °F 24.8 °F 56% 29.93 in 10.0 mi West 15.0 mph 21.9 mph N/A   Clear
12:55 AM 39.2 °F 30.8 °F 26.6 °F 61% 29.93 in 10.0 mi West 15.0 mph 21.9 mph N/A   Clear
1:15 AM 39.2 °F 32.5 °F 24.8 °F 56% 29.95 in 10.0 mi WSW 10.4 mph 18.4 mph N/A   Clear
1:35 AM 39.2 °F 31.6 °F 24.8 °F 56% 29.96 in 10.0 mi West 12.7 mph 20.7 mph N/A   Mostly Cloudy
1:55 AM 39.2 °F 29.8 °F 26.6 °F 61% 29.96 in 10.0 mi West 18.4 mph 29.9 mph N/A   Overcast
2:15 AM 39.2 °F 29.6 °F 28.4 °F 65% 29.97 in 10.0 mi West 19.6 mph 27.6 mph N/A   Overcast
2:35 AM 39.2 °F 29.6 °F 30.2 °F 70% 29.99 in 10.0 mi West 19.6 mph 34.5 mph N/A   Overcast
2:55 AM 39.2 °F 29.8 °F 30.2 °F 70% 30.02 in 10.0 mi WNW 18.4 mph 32.2 mph N/A   Overcast
3:15 AM 37.4 °F 27.5 °F 30.2 °F 75% 30.03 in 10.0 mi WNW 18.4 mph 26.5 mph N/A   Mostly Cloudy
3:35 AM 37.4 °F 27.8 °F 28.4 °F 70% 30.05 in 10.0 mi WNW 17.3 mph 29.9 mph N/A   Partly Cloudy
3:55 AM 37.4 °F 26.9 °F 28.4 °F 70% 30.06 in 10.0 mi West 20.7 mph 31.1 mph N/A   Clear
4:15 AM 37.4 °F 26.6 °F 28.4 °F 70% 30.07 in 10.0 mi West 21.9 mph 35.7 mph N/A   Clear
4:35 AM 37.4 °F 28.2 °F 28.4 °F 70% 30.08 in 10.0 mi WNW 16.1 mph 33.4 mph N/A   Clear
5:15 AM 37.4 °F 28.2 °F 24.8 °F 60% 30.11 in 10.0 mi WNW 16.1 mph 27.6 mph N/A   Clear
5:35 AM 39.2 °F 28.5 °F 24.8 °F 56% 30.11 in 10.0 mi WNW 24.2 mph 32.2 mph N/A   Clear
5:55 AM 39.2 °F 29.8 °F 24.8 °F 56% 30.12 in 10.0 mi WNW 18.4 mph 27.6 mph N/A   Clear
6:15 AM 37.4 °F 28.2 °F 23.0 °F 56% 30.14 in 10.0 mi WNW 16.1 mph 31.1 mph N/A   Clear
6:35 AM 37.4 °F 27.8 °F 21.2 °F 52% 30.15 in 10.0 mi WNW 17.3 mph 29.9 mph N/A   Clear
6:55 AM 37.4 °F 27.8 °F 21.2 °F 52% 30.15 in 10.0 mi WNW 17.3 mph 26.5 mph N/A   Clear
7:15 AM 37.4 °F 27.2 °F 24.8 °F 60% 30.16 in 10.0 mi WNW 19.6 mph 31.1 mph N/A   Clear
7:35 AM 37.4 °F 27.8 °F 23.0 °F 56% 30.17 in 10.0 mi WNW 17.3 mph 27.6 mph N/A   Clear
7:55 AM 37.4 °F 27.8 °F 21.2 °F 52% 30.18 in 10.0 mi WNW 17.3 mph 28.8 mph N/A   Clear
8:35 AM 39.2 °F 29.3 °F 24.8 °F 56% 30.20 in 10.0 mi WNW 20.7 mph 32.2 mph N/A   Clear
8:55 AM 39.2 °F 32.0 °F 24.8 °F 56% 30.22 in 10.0 mi NW 11.5 mph 28.8 mph N/A   Clear
9:16 AM 39.2 °F 30.5 °F 23.0 °F 52% 30.23 in 10.0 mi NW 16.1 mph 26.5 mph N/A   Clear
9:35 AM 39.2 °F 30.8 °F 23.0 °F 52% 30.23 in 10.0 mi NNW 15.0 mph 24.2 mph N/A   Clear
9:55 AM 41.0 °F 31.4 °F 21.2 °F 45% 30.24 in 10.0 mi NW 21.9 mph 32.2 mph N/A   Clear
10:15 AM 41.0 °F 31.9 °F 23.0 °F 49% 30.24 in 10.0 mi NW 19.6 mph 29.9 mph N/A   Clear
10:35 AM 41.0 °F 32.2 °F 24.8 °F 53% 30.24 in 10.0 mi NW 18.4 mph 33.4 mph N/A   Clear
10:56 AM 42.8 °F 35.4 °F 24.8 °F 49% 30.25 in 10.0 mi NW 15.0 mph 36.8 mph N/A   Clear
11:15 AM 42.8 °F 35.1 °F 23.0 °F 46% 30.24 in 10.0 mi NW 16.1 mph 24.2 mph N/A   Clear
11:35 AM 42.8 °F 35.8 °F 23.0 °F 46% 30.25 in 10.0 mi NW 13.8 mph 31.1 mph N/A   Clear
11:55 AM 42.8 °F 34.8 °F 23.0 °F 46% 30.26 in 10.0 mi WNW 17.3 mph 27.6 mph N/A   Clear
12:15 PM 42.8 °F 36.2 °F 23.0 °F 46% 30.26 in 10.0 mi NW 12.7 mph 25.3 mph N/A   Clear
12:36 PM 42.8 °F 34.8 °F 23.0 °F 46% 30.25 in 10.0 mi NW 17.3 mph 26.5 mph N/A   Clear
12:55 PM 42.8 °F 34.8 °F 23.0 °F 46% 30.26 in 10.0 mi NW 17.3 mph 31.1 mph N/A   Clear
1:15 PM 42.8 °F 35.8 °F 23.0 °F 46% 30.28 in 10.0 mi WNW 13.8 mph 28.8 mph N/A   Clear
1:35 PM 42.8 °F 35.8 °F 23.0 °F 46% 30.28 in 10.0 mi NNW 13.8 mph 21.9 mph N/A   Clear
1:55 PM 42.8 °F 35.4 °F 23.0 °F 46% 30.29 in 10.0 mi WNW 15.0 mph 31.1 mph N/A   Clear
2:35 PM 42.8 °F 35.4 °F 21.2 °F 42% 30.31 in 10.0 mi WNW 15.0 mph 25.3 mph N/A   Clear
2:55 PM 42.8 °F 36.2 °F 21.2 °F 42% 30.33 in 10.0 mi West 12.7 mph 17.3 mph N/A   Clear
3:15 PM 41.0 °F 33.5 °F 23.0 °F 49% 30.35 in 10.0 mi WNW 13.8 mph 17.3 mph N/A   Clear
3:35 PM 41.0 °F 33.1 °F 21.2 °F 45% 30.34 in 10.0 mi WNW 15.0 mph 24.2 mph N/A   Clear
3:56 PM 39.2 °F 31.2 °F 23.0 °F 52% 30.36 in 10.0 mi WNW 13.8 mph 24.2 mph N/A   Clear
4:15 PM 39.2 °F 31.2 °F 23.0 °F 52% 30.37 in 10.0 mi WNW 13.8 mph 18.4 mph N/A   Clear
4:35 PM 39.2 °F 31.2 °F 23.0 °F 52% 30.36 in 10.0 mi NW 13.8 mph 23.0 mph N/A   Clear
4:55 PM 39.2 °F 34.2 °F 21.2 °F 49% 30.38 in 10.0 mi West 6.9 mph - N/A   Clear
5:15 PM 37.4 °F 30.3 °F 21.2 °F 52% 30.39 in 10.0 mi West 10.4 mph - N/A   Clear
5:35 PM 37.4 °F 29.3 °F 21.2 °F 52% 30.39 in 10.0 mi NW 12.7 mph 19.6 mph N/A   Clear
5:55 PM 37.4 °F 30.3 °F 21.2 °F 52% 30.40 in 10.0 mi West 10.4 mph - N/A   Clear
6:15 PM 35.6 °F 29.9 °F 21.2 °F 56% 30.40 in 10.0 mi NW 6.9 mph - N/A   Clear
6:35 PM 35.6 °F 32.8 °F 21.2 °F 56% 30.43 in 10.0 mi West 3.5 mph - N/A   Clear
6:55 PM 35.6 °F - 21.2 °F 56% 30.42 in 10.0 mi Calm Calm - N/A   Clear
7:15 PM 33.8 °F 29.6 °F 21.2 °F 60% 30.43 in 10.0 mi WNW 4.6 mph - N/A   Clear
7:35 PM 33.8 °F 28.6 °F 23.0 °F 65% 30.43 in 10.0 mi WNW 5.8 mph - N/A   Clear
7:55 PM 30.2 °F - 23.0 °F 75% 30.44 in 10.0 mi Calm Calm - N/A   Clear
8:15 PM 28.4 °F - 21.2 °F 74% 30.46 in 10.0 mi Calm Calm - N/A   Clear
8:35 PM 24.8 °F - 19.4 °F 80% 30.46 in 10.0 mi Calm Calm - N/A   Clear
8:55 PM 24.8 °F 17.9 °F 17.6 °F 74% 30.47 in 10.0 mi West 5.8 mph - N/A   Clear
9:15 PM 24.8 °F 20.5 °F 19.4 °F 80% 30.48 in 10.0 mi SW 3.5 mph - N/A   Clear
9:35 PM 21.2 °F - 19.4 °F 93% 30.49 in 10.0 mi Calm Calm - N/A   Clear
9:55 PM 24.8 °F 20.5 °F 21.2 °F 86% 30.49 in 10.0 mi NW 3.5 mph - N/A   Clear
10:15 PM 21.2 °F - 17.6 °F 86% 30.51 in 10.0 mi Calm Calm - N/A   Clear
10:35 PM 21.2 °F 16.4 °F 19.4 °F 93% 30.51 in 10.0 mi WNW 3.5 mph - N/A   Clear
10:55 PM 21.2 °F - 19.4 °F 93% 30.50 in 10.0 mi Calm Calm - N/A   Clear
11:15 PM 21.2 °F 14.9 °F 15.8 °F 80% 30.50 in 10.0 mi South 4.6 mph - N/A   Clear
11:35 PM 19.4 °F 12.8 °F 17.6 °F 93% 30.50 in 10.0 mi West 4.6 mph - N/A   Clear
11:55 PM 19.4 °F - 15.8 °F 86% 30.51 in 10.0 mi Calm Calm - N/A   Clear